This demonstration page uses our WeatherBlox Daily Observations layout. Learn more.

Left ArrowRight Arrow

34.74481, -87.66753

Hourly Observations for March 20, 2018

Temp ( °F °C ) Dew Point ( °F °C ) Humidity (%) Winds ( mph kmh ) Pressure ( in mb ) Visibility ( mi km ) Precip ( " mm )
12:53 am 00:53 Clear 55 12.8 52 11.1 90 90 WNW 3 6 29.58 1002 10 16 0.00 0.00
1:53 am 01:53 Clear 55 12.8 49 9.4 80 80 W 3 6 29.59 1002 10 16 0.00 0.00
2:53 am 02:53 Clear 51 10.6 48 8.9 89 89 WNW 8 13 29.59 1002 10 16 0.00 0.00
3:53 am 03:53 Mostly Cloudy 52 11.1 49 9.4 89 89 W 6 9 29.58 1002 10 16 0.00 0.00
4:53 am 04:53 Cloudy 53 11.7 49 9.4 86 86 W 9 15 29.59 1002 10 16 0.00 0.00
5:53 am 05:53 Mostly Cloudy 52 11.1 48 8.9 86 86 WNW 10 17 29.60 1002 10 16 0.00 0.00
6:48 am 06:48 Cloudy 52 11 48 9 88 88 WNW 8 13 29.65 1004 10 16 0.00 0.00
6:53 am 06:53 Cloudy 52 11.1 48 8.9 86 86 WNW 9 15 29.61 1003 10 16 0.00 0.00
7:50 am 07:50 Cloudy 52 11 46 8 82 82 WNW 10 17 29.65 1004 10 16 0.00 0.00
7:53 am 07:53 Cloudy 52 11.1 47 8.3 83 83 WNW 12 19 29.62 1003 10 16 0.00 0.00
8:53 am 08:53 Cloudy 52 11.1 46 7.8 80 80 WNW 14 22 29.64 1004 10 16 0.00 0.00
9:26 am 09:26 Cloudy 51 10.6 45 7.2 80 80 WNW 14 22 29.68 1005 10 16 0.00 0.00
9:53 am 09:53 Cloudy 51 10.6 44 6.7 77 77 NW 10 17 29.66 1004 10 16 0.00 0.00
10:53 am 10:53 Cloudy 52 11.1 44 6.7 75 75 W 9 15 29.67 1005 10 16 0.00 0.00
11:26 am 11:26 Cloudy 52 11.1 44 6.7 75 75 WNW 12 19 29.71 1006 10 16 0.00 0.00
11:53 am 11:53 Cloudy 51 10.6 44 6.7 77 77 WNW 17 28 29.67 1005 10 16 0.00 0.00
12:53 pm 12:53 Cloudy 50 10 42 5.6 74 74 WNW 17 28 29.68 1005 10 16 0.00 0.00
1:53 pm 13:53 Cloudy 50 10 42 5.6 74 74 WNW 21 33 29.69 1005 10 16 0.00 0.00
2:53 pm 14:53 Cloudy 49 9.4 41 5 74 74 WNW 20 31 29.70 1006 10 16 0.00 0.00
3:53 pm 15:53 Cloudy 47 8.3 39 3.9 74 74 WNW 16 26 29.73 1007 10 16 0.00 0.00
4:53 pm 16:53 Cloudy 47 8.3 39 3.9 74 74 WNW 14 22 29.75 1007 10 16 0.00 0.00
5:53 pm 17:53 Cloudy 45 7.2 37 2.8 74 74 NW 20 31 29.77 1008 10 16 0.00 0.00
6:53 pm 18:53 Cloudy 43 6.1 35 1.7 74 74 NW 17 28 29.81 1010 10 16 0.00 0.00
7:53 pm 19:53 Cloudy 41 5 33 0.6 73 73 NW 18 30 29.85 1011 10 16 0.00 0.03
8:53 pm 20:53 Cloudy 41 5 32 0 70 70 NNW 13 20 29.88 1012 10 16 0.00 0.00
9:53 pm 21:53 Cloudy 41 5 32 0 70 70 NW 8 13 29.91 1013 10 16 0.00 0.00
10:53 pm 22:53 Mostly Cloudy 40 4.4 32 0 73 73 NW 12 19 29.92 1013 10 16 0.00 0.00
11:45 pm 23:45 Partly Cloudy 39 3.9 32 0 76 76 NW 7 11 29.91 1013 10 16 0.00 0.00
11:53 pm 23:53 Mostly Clear 39 3.9 32 0 76 76 NW 8 13 29.92 1013 10 16 0.00 0.00

Powered by AerisWeather